This demonstration page uses our WeatherBlox Daily Observations layout. Learn more.

Left ArrowRight Arrow

Hourly Observations for September 30, 2015

Temp ( °F °C ) Dew Point ( °F °C ) Humidity (%) Winds ( mph kmh ) Pressure ( in mb ) Visibility ( mi km ) Precip ( " mm )
12:21 am 00:21 Mostly Cloudy 77 25 74 23.3 90 90 S 6 9 29.80 1009 8 13 0.00 0.00
12:59 am 00:59 Mostly Cloudy 77 25 74 23.3 90 90 S 7 11 29.78 1009 8 13 0.00 0.00
1:59 am 01:59 Mostly Cloudy 77 25 74 23.3 90 90 S 8 13 29.77 1008 8 13 0.00 0.00
2:59 am 02:59 Mostly Cloudy 77 25 74 23.3 90 90 S 6 9 29.75 1008 7 11 0.00 0.00
3:59 am 03:59 Cloudy 77 25 74 23.3 90 90 S 7 11 29.74 1007 7 11 0.00 0.00
4:59 am 04:59 Cloudy with Light Rain 77 25 74 23.3 90 90 SSW 6 9 29.74 1007 7 11 0.01 0.25
5:59 am 05:59 Cloudy 76 24.4 74 23.3 94 94 SSW 5 7 29.75 1007 7 11 0.00 0.03
6:59 am 06:59 Cloudy with Light Rain 76 24.4 74 23.3 94 94 SSW 6 9 29.75 1008 7 11 0.01 0.25
7:59 am 07:59 Cloudy with Mist and Fog 76 24.4 74 23.3 94 94 SW 6 9 29.77 1008 6 10 0.00 0.03
8:15 am 08:15 Cloudy with Mist and Fog 76 24.4 74 23.3 94 94 SW 6 9 29.77 1008 6 10 0.00 0.00
8:59 am 08:59 Cloudy with Mist and Fog 77 25 74 23.3 90 90 SSW 6 9 29.78 1008 6 10 0.00 0.00
9:59 am 09:59 Cloudy with Light Rain 78 25.6 75 23.9 90 90 SSW 5 7 29.78 1009 6 10 0.03 0.76
10:59 am 10:59 Mostly Cloudy 79 26.1 75 23.9 88 88 SSW 7 11 29.78 1008 8 13 0.00 0.03
11:59 am 11:59 Mostly Cloudy 82 27.8 76 24.4 82 82 VRB 6 9 29.78 1008 8 13 0.00 0.03
12:59 pm 12:59 Mostly Cloudy 83 28.3 75 23.9 77 77 SSW 10 17 29.79 1009 9 14 0.00 0.00
1:59 pm 13:59 Cloudy 81 27.2 74 23.3 79 79 SSW 6 9 29.79 1009 7 11 0.00 0.03
2:42 pm 14:42 Cloudy with Thunderstorms 79 26.1 74 23.3 85 85 S 3 6 29.77 1008 5 8 0.13 3.30
2:59 pm 14:59 Cloudy with Thunderstorms 78 25.6 75 23.9 90 90 SW 5 7 29.78 1009 5 8 0.23 5.84
3:36 pm 15:36 Cloudy with Thunderstorms 75 23.9 72 22.2 90 90 SSW 7 11 29.77 1008 6 10 0.06 1.52
3:41 pm 15:41 Cloudy with Light Rain 75 23.9 72 22.2 90 90 SW 6 9 29.77 1008 5 8 0.06 1.52
3:44 pm 15:44 Cloudy with Light Rain 75 23.9 72 22.2 90 90 SSW 7 11 29.77 1008 5 8 0.06 1.52
3:59 pm 15:59 Cloudy with Light Rain 75 23.9 71 21.7 88 88 WSW 5 7 29.77 1008 4 6 0.07 1.78
4:43 pm 16:43 Cloudy with Thunderstorms 75 23.9 72 22.2 90 90 Calm 29.77 1008 6 10 0.03 0.76
4:59 pm 16:59 Cloudy with Light Rain 75 23.9 72 22.2 90 90 S 5 7 29.78 1009 6 10 0.04 1.02
5:59 pm 17:59 Mostly Cloudy with Light Rain 75 23.9 72 22.2 90 90 SSW 5 7 29.78 1009 5 8 0.09 2.29
6:59 pm 18:59 Mostly Cloudy with Rain 74 23.3 72 22.2 94 94 SSE 7 11 29.78 1009 6 10 0.00 0.00
8:31 pm 20:31 Cloudy with Thunderstorms 72 22.2 70 21.1 94 94 NNE 15 24 29.83 1010 4 6 0.08 2.03
8:59 pm 20:59 Cloudy with Light Rain 72 22.2 70 21.1 94 94 NNE 15 24 29.83 1010 6 10 0.10 2.54
9:59 pm 21:59 Cloudy with Light Rain 71 21.7 69 20.6 94 94 N 16 26 29.83 1010 7 11 0.01 0.25
10:24 pm 22:24 Cloudy with Rain 71 21.7 68 20 90 90 N 16 26 29.83 1010 4 6 0.05 1.27
10:59 pm 22:59 Cloudy with Heavy Rain 71 21.7 68 20 90 90 N 18 30 29.84 1011 3 5 0.22 5.59
11:25 pm 23:25 Cloudy with Heavy Rain 71 21.7 68 20 90 90 N 17 28 29.83 1010 3 5 0.11 2.79
11:33 pm 23:33 Cloudy with Heavy Rain 71 21.7 69 20.6 94 94 N 13 20 29.85 1011 3 5 0.14 3.56
11:59 pm 23:59 Cloudy with Heavy Rain 71 21.7 68 20 90 90 N 8 13 29.86 1011 3 5 0.29 7.37

Powered by AerisWeather